Regional Weather Roundup
Issued by NWS

Home | Current Version | Previous Version | Graphics & Text | Print | Product List | Glossary On
Versions: 1 2 3 4 5 6 7 8 9 10 11 12 13 14 15 16 17 18 19 20 21 22 23 24 25 26 27 28 29 30 31 32 33 34 35 36 37 38 39 40 41 42 43 44 45 46 47 48 49 50
000
ASUS43 KFSD 040910
RWRSD

WEATHER ROUNDUP FOR SOUTH DAKOTA
NATIONAL WEATHER SERVICE SIOUX FALLS SD
300 AM CST WED MAR 04 2015

NOTE: "FAIR" INDICATES FEW OR NO CLOUDS BELOW 12,000 FEET WITH NO
SIGNIFICANT WEATHER AND/OR OBSTRUCTIONS TO VISIBILITY.


SDZ001>005-009-010-012>017-041000-
NORTHWEST AND NORTH CENTRAL SOUTH DAKOTA

CITY           SKY/WX    TMP DP  RH WIND       PRES   REMARKS
BUFFALO          N/A      6  -1  73 NW18      29.97R WCI -13
FAITH            N/A      5  -4  66 W13       30.06R WCI -12
MOBRIDGE       PTCLDY     3  -3  76 W5        30.04S WCI  -6
$$

SDZ012>016-024>037-041>051-057-063-072>074-041000-
SOUTHWEST AND SOUTH CENTRAL SOUTH DAKOTA

CITY           SKY/WX    TMP DP  RH WIND       PRES   REMARKS
RAPID CTY ARPT CLEAR      1  -7  68 W3        30.08R
PIERRE         CLEAR      3  -4  72 SW12      30.11F WCI -13
CUSTER         CLEAR     -3  -9  75 W8        29.89S WCI -18
ELLSWORTH AFB  CLEAR      3  -7  65 W5        30.06R WCI  -7
PHILIP         CLEAR      2  -7  66 NW7       30.13S WCI -11
PINE RIDGE     PTCLDY     0  -4  83 W6        30.11R WCI -12
SPEARFISH      FAIR       7  -4  61 W14G20    30.03R WCI -10
WINNER         FAIR       5  -6  60 W10       30.13F WCI -10
$$

SDZ004>011-016>023-039-040-041000-
NORTHEAST SOUTH DAKOTA

CITY           SKY/WX    TMP DP  RH WIND       PRES   REMARKS
ABERDEEN       MOCLDY    -8 -13  78 W6        30.12F WCI -21
WATERTOWN      CLEAR     -3 -10  72 W6        30.07F WCI -15
SISSETON         N/A     -2 -10  69 W10       30.09F WCI -19
$$

SDZ017-020-022-023-036>040-048>070-041000-
SOUTHEAST SOUTH DAKOTA

CITY           SKY/WX    TMP DP  RH WIND       PRES   REMARKS
SIOUX FALLS    CLEAR      2  -3  80 CALM      30.15S
HURON          CLEAR     -4  -7  87 S5        30.15F WCI -15
CHAMBERLAIN    CLEAR      0  -6  74 W6        30.14F WCI -12
MITCHELL       CLEAR      3  -1  83 SW3       30.18S
YANKTON        PTCLDY     9   0  66 W6        30.20S WCI  -1
$$

ABBREVIATIONS USED IN REMARKS
   TC - TEMPERATURE IN CELSIUS
  WCI - WIND CHILL INDEX
   HX - HEAT INDEX
  VSB - VISIBILITY




USA.gov is the U.S. government's official web portal to all federal, state and local government web resources and services.